Погода в Ираншахре

Иран     27°12′50″N   60°30′58″E
темп.,
°C
ветер,
м/с
пор.,
м/с
влажн.,
%
обл.,
%
осадки,
мм/ч
давл.,
гПа
погр.,
м
21 октября, чт
чт2100:30+26сз22360 0.0 101213
03:30+24ссз11425 0.0 101211
06:30+25ссз22401 0.0 101426
09:30+30зюз01260 0.0 1013875
12:30+34з34170 0.0 10101799
15:30+34зсз76140 0.0 10092155
18:30+29з46220 0.0 101187
21:30+27зсз33350 0.0 101237
22 октября, пт
пт2200:30+24ссв11230 0.0 101213
03:30+22с12210 0.0 101351
06:30+22с610210 0.0 1016277
09:30+28с56140 0.0 10161351
12:30+31ссз109120 0.0 10131919
15:30+30ссз1111140 0.0 10131256
18:30+25с1116180 0.0 1015377
21:30+24с1016180 0.0 1016499
23 октября, сб
сб2300:30+22с814140 0.0 1015346
03:30+20ссв611150 0.0 1015192
06:30+20ссв49170 0.0 1017258
09:30+27ссз7980 0.0 10161364
12:30+30сз7880 0.0 10131712
15:30+29сз5590 0.0 10111723
18:30+24с5970 0.0 1013128
21:30+21ссв1180 0.0 101416
24 октября, вс
вс2400:30+19ю01100 0.0 101311
03:30+18в22110 0.0 101411
06:30+19всв2290 0.0 101518
09:30+26вюв2260 0.0 1015607
12:30+30зюз2370 0.0 10111066
15:30+31зсз24120 0.0 10101395
18:30+26ссв11170 0.0 101111
21:30+24з33260 0.0 101224
25 октября, пн
пн2500:30+22всв22340 0.0 101213
03:30+21всв33330 0.0 101214
06:30+22в22330 0.0 101422
09:30+27зюз34260 0.0 10141007
12:30+31зсз67200 0.0 10112039
15:30+31зсз67190 0.0 10101744
18:30+27зсз34294 0.0 101245
21:30+25юз363823 0.0 1012165